Regional Weather Roundup
Issued by NWS

Home | Current Version | Previous Version | Graphics & Text | Print | Product List | Glossary On
Versions: 1 2 3 4 5 6 7 8 9 10 11 12 13 14 15 16 17 18 19 20 21 22 23 24 25 26 27 28 29 30 31 32 33 34 35 36 37 38 39 40 41 42 43 44 45 46 47 48 49 50
000
ASUS43 KBIS 300602
RWRND

NORTH DAKOTA REGIONAL WEATHER ROUNDUP
NATIONAL WEATHER SERVICE BISMARCK ND
100 AM CDT SAT APR 30 2016

NOTE: "FAIR" INDICATES FEW OR NO CLOUDS BELOW 12,000 FEET WITH NO
SIGNIFICANT WEATHER AND/OR OBSTRUCTIONS TO VISIBILITY.


NDZ001>003-009>011-017-300700-
NORTHWEST NORTH DAKOTA

CITY           SKY/WX    TMP DP  RH WIND       PRES   REMARKS
WILLISTON      CLEAR     45  27  49 E8        30.15S
6HR MIN TEMP:  45; 6HR MAX TEMP:  61;

MINOT          CLEAR     45  29  53 NE6       30.18R
$$

NDZ018>021-031>035-040>046-300700-
SOUTHWEST NORTH DAKOTA

CITY           SKY/WX    TMP DP  RH WIND       PRES   REMARKS
BISMARCK       CLEAR     42  34  73 NE9       30.13S
6HR MIN TEMP:  42; 6HR MAX TEMP:  60;

DICKINSON      PTCLDY    39  30  70 E8        30.09S
GARRISON         N/A     45  30  55 E12       30.15R
6HR MIN TEMP:  44; 6HR MAX TEMP:  59;

HETTINGER ARPT CLOUDY    35  31  85 CALM      30.10S
$$

NDZ004>008-012>016-024-026-027-054-300700-
NORTHEAST NORTH DAKOTA

CITY           SKY/WX    TMP DP  RH WIND       PRES   REMARKS
GRAND FORKS    CLEAR     47  32  56 NE10      30.17F
GRND FRKS AFB  PTCLDY    45  30  56 E9        30.18S
DEVILS LAKE    CLEAR     42  30  62 NE8       30.19S
$$

NDZ022-023-025-028>030-036>039-047>053-300700-
SOUTHEAST NORTH DAKOTA

CITY           SKY/WX    TMP DP  RH WIND       PRES   REMARKS
FARGO          CLEAR     50  32  50 E13       30.12S
6HR MIN TEMP:  50; 6HR MAX TEMP:  64;

JAMESTOWN      CLEAR     45  32  60 NE13      30.12S
$$




USA.gov is the U.S. government's official web portal to all federal, state and local government web resources and services.